User: anonymous   Login
Location: Unspecified
(0.0000°N, 0.0000°E)
Time: 17:51:09
(UTC+00:00)
Language:

NANOSAT C BR1 - Orbit

View from above orbital plane
View from above orbital plane
View from above satellite
View from above satellite

Ground track
Ground track

The orbit data is extracted from the following two-line orbital elements,

1 40024U 14033Q   19169.23496226  .00000143  00000-0  20768-4 0  9996
2 40024  97.9141  91.2512 0013604  58.5878 301.6668 14.89840415271372
Epoch (UTC): 18 June 2019 05:38:20
Eccentricity: 0.0013604
inclination: 97.9141°
perigee height: 589 km
apogee height: 608 km
right ascension of ascending node: 91.2512°
argument of perigee: 58.5878°
revolutions per day: 14.89840415
mean anomaly at epoch: 301.6668°
orbit number at epoch: 27137

The dashed part of the orbit path shows where the satellite is in the earth's shadow,  

DLR